| time (UTC) | temp C | wind direction | speed KPH | gust KPH | rain 1hr cm | rain 24hr cm | rain mn cm | humidity % | barometer mb |
| 20260506112634 | 4 | 345 | 1.6 | 6.4 | 0.00 | 0.05 | 0.00 | 74 | 1009.4 |
| 20260506111629 | 3 | 46 | 1.6 | 3.2 | 0.00 | 0.05 | 0.00 | 75 | 1009.4 |
| 20260506110630 | 4 | 0 | 0.0 | 1.6 | 0.00 | 0.05 | 0.00 | 74 | 1009.1 |
| 20260506105629 | 4 | 324 | 0.0 | 1.6 | 0.00 | 0.05 | 0.00 | 73 | 1009.0 |
| 20260506104629 | 4 | 44 | 0.0 | 4.8 | 0.00 | 0.05 | 0.00 | 72 | 1008.8 |
| 20260506103631 | 5 | 0 | 3.2 | 9.7 | 0.00 | 0.05 | 0.00 | 70 | 1008.8 |
| 20260506103105 | 5 | 58 | 1.6 | 6.4 | 0.00 | 0.05 | 0.00 | 69 | 1008.8 |
| 20260506102841 | 5 | 58 | 1.6 | 6.4 | 0.00 | 0.05 | 0.00 | 69 | 1008.8 |
| 20260506101629 | 5 | 10 | 1.6 | 6.4 | 0.00 | 0.03 | 0.00 | 68 | 1008.6 |
| 20260506100631 | 5 | 52 | 3.2 | 9.7 | 0.00 | 0.03 | 0.00 | 68 | 1008.2 |
| 20260506095630 | 5 | 331 | 1.6 | 8.0 | 0.00 | 0.03 | 0.00 | 68 | 1008.0 |
| 20260506094630 | 5 | 0 | 1.6 | 4.8 | 0.00 | 0.03 | 0.00 | 68 | 1008.0 |
| 20260506094109 | 5 | 43 | 3.2 | 6.4 | 0.00 | 0.03 | 0.00 | 68 | 1008.1 |
| 20260506093841 | 5 | 43 | 3.2 | 6.4 | 0.00 | 0.03 | 0.00 | 68 | 1008.1 |
| 20260506092630 | 5 | 70 | 3.2 | 6.4 | 0.00 | 0.03 | 0.00 | 71 | 1008.1 |
| 20260506092117 | 6 | 351 | 3.2 | 6.4 | 0.00 | 0.03 | 0.00 | 71 | 1008.1 |
| 20260506091630 | 6 | 351 | 3.2 | 6.4 | 0.00 | 0.03 | 0.00 | 71 | 1008.1 |
| 20260506090630 | 6 | 67 | 3.2 | 6.4 | 0.00 | 0.03 | 0.00 | 73 | 1007.9 |
| 20260506090104 | 6 | 334 | 3.2 | 6.4 | 0.00 | 0.03 | 0.00 | 73 | 1007.9 |
| 20260506085841 | 6 | 334 | 3.2 | 6.4 | 0.00 | 0.03 | 0.00 | 73 | 1007.9 |
| 20260506085314 | 6 | 42 | 3.2 | 6.4 | 0.00 | 0.03 | 0.00 | 74 | 1008.0 |
| 20260506085125 | 6 | 42 | 3.2 | 6.4 | 0.00 | 0.03 | 0.00 | 74 | 1008.0 |
| 20260506083621 | 6 | 50 | 3.2 | 11.3 | 0.00 | 0.03 | 0.00 | 74 | 1007.9 |
| 20260506083109 | 6 | 339 | 3.2 | 8.0 | 0.00 | 0.03 | 0.00 | 73 | 1008.0 |
| 20260506082621 | 6 | 339 | 3.2 | 8.0 | 0.00 | 0.03 | 0.00 | 73 | 1008.0 |
| 20260506082555 | 7 | 338 | 3.2 | 4.8 | 0.00 | 0.03 | 0.00 | 73 | 1008.1 |
| 20260506082348 | 7 | 338 | 3.2 | 4.8 | 0.00 | 0.03 | 0.00 | 73 | 1008.1 |
| 20260506080619 | 7 | 333 | 1.6 | 6.4 | 0.00 | 0.03 | 0.00 | 71 | 1007.9 |
| 20260506072603 | 7 | 335 | 3.2 | 8.0 | 0.00 | 0.03 | 0.00 | 65 | 1007.7 |
| 20260506071602 | 7 | 344 | 1.6 | 4.8 | 0.00 | 0.03 | 0.00 | 63 | 1007.8 |
| 20260506071051 | 7 | 306 | 1.6 | 6.4 | 0.00 | 0.03 | 0.00 | 62 | 1007.6 |
| 20260506070602 | 7 | 306 | 1.6 | 6.4 | 0.00 | 0.03 | 0.00 | 62 | 1007.6 |
| 20260506070552 | 8 | 277 | 3.2 | 8.0 | 0.00 | 0.03 | 0.00 | 61 | 1007.8 |
| 20260506070332 | 8 | 277 | 3.2 | 8.0 | 0.00 | 0.03 | 0.00 | 61 | 1007.8 |
| 20260506062051 | 8 | 345 | 3.2 | 9.7 | 0.00 | 0.03 | 0.00 | 58 | 1007.8 |
| 20260506061809 | 8 | 345 | 3.2 | 9.7 | 0.00 | 0.03 | 0.00 | 58 | 1007.8 |
| 20260506060559 | 8 | 312 | 1.6 | 11.3 | 0.00 | 0.03 | 0.00 | 58 | 1007.7 |
| 20260506050554 | 8 | 38 | 4.8 | 11.3 | 0.00 | 0.03 | 0.00 | 53 | 1007.5 |
| 20260506045030 | 8 | 278 | 3.2 | 9.7 | 0.00 | 0.05 | 0.00 | 53 | 1007.3 |
| 20260506044807 | 8 | 278 | 3.2 | 9.7 | 0.00 | 0.05 | 0.00 | 53 | 1007.3 |
| 20260506044040 | 8 | 288 | 3.2 | 11.3 | 0.00 | 0.05 | 0.00 | 53 | 1007.4 |
| 20260506043554 | 8 | 288 | 3.2 | 11.3 | 0.00 | 0.05 | 0.00 | 53 | 1007.4 |
| 20260506042553 | 9 | 301 | 3.2 | 11.3 | 0.00 | 0.05 | 0.00 | 52 | 1007.3 |
| 20260506042032 | 9 | 0 | 3.2 | 11.3 | 0.00 | 0.05 | 0.00 | 53 | 1007.5 |
| 20260506041553 | 9 | 0 | 3.2 | 11.3 | 0.00 | 0.05 | 0.00 | 53 | 1007.5 |
| 20260506040550 | 9 | 0 | 3.2 | 14.5 | 0.00 | 0.05 | 0.00 | 52 | 1007.5 |
| 20260506035550 | 9 | 290 | 3.2 | 11.3 | 0.00 | 0.05 | 0.05 | 52 | 1007.6 |
| 20260506034550 | 9 | 249 | 1.6 | 9.7 | 0.00 | 0.05 | 0.05 | 52 | 1007.5 |
| 20260506033547 | 9 | 307 | 1.6 | 6.4 | 0.00 | 0.05 | 0.05 | 52 | 1007.5 |
| 20260506032548 | 9 | 215 | 1.6 | 8.0 | 0.00 | 0.05 | 0.05 | 52 | 1007.6 |
| 20260506032029 | 9 | 0 | 0.0 | 8.0 | 0.00 | 0.05 | 0.05 | 53 | 1007.6 |
| 20260506031548 | 9 | 0 | 0.0 | 8.0 | 0.00 | 0.05 | 0.05 | 53 | 1007.6 |
| 20260506030543 | 9 | 0 | 1.6 | 8.0 | 0.00 | 0.05 | 0.05 | 52 | 1007.5 |
| 20260506030028 | 9 | 65 | 0.0 | 6.4 | 0.00 | 0.05 | 0.05 | 51 | 1007.6 |
| 20260506025754 | 9 | 65 | 0.0 | 6.4 | 0.00 | 0.05 | 0.05 | 51 | 1007.6 |
| 20260506024543 | 9 | 0 | 0.0 | 6.4 | 0.00 | 0.05 | 0.05 | 51 | 1007.8 |
| 20260506023542 | 9 | 0 | 0.0 | 6.4 | 0.00 | 0.05 | 0.05 | 50 | 1007.5 |
| 20260506022912 | 10 | 0 | 0.0 | 4.8 | 0.00 | 0.05 | 0.05 | 50 | 1007.6 |
| 20260506022646 | 10 | 0 | 0.0 | 3.2 | 0.00 | 0.05 | 0.05 | 50 | 1007.6 |
| 20260506021715 | 10 | 116 | 0.0 | 6.4 | 0.00 | 0.05 | 0.05 | 49 | 1007.7 |
| 20260506020538 | 10 | 0 | 0.0 | 4.8 | 0.00 | 0.05 | 0.05 | 50 | 1007.6 |
| 20260506015538 | 10 | 0 | 0.0 | 4.8 | 0.00 | 0.05 | 0.05 | 49 | 1007.3 |
| 20260506015021 | 10 | 0 | 0.0 | 4.8 | 0.00 | 0.05 | 0.05 | 48 | 1007.3 |
| 20260506014538 | 10 | 0 | 0.0 | 4.8 | 0.00 | 0.05 | 0.05 | 48 | 1007.3 |
| 20260506014456 | 10 | 293 | 0.0 | 4.8 | 0.00 | 0.05 | 0.05 | 49 | 1007.2 |
| 20260506013538 | 10 | 293 | 0.0 | 4.8 | 0.00 | 0.05 | 0.05 | 49 | 1007.2 |
| 20260506012539 | 10 | 0 | 0.0 | 4.8 | 0.00 | 0.05 | 0.05 | 48 | 1007.1 |
| 20260506011537 | 10 | 0 | 1.6 | 8.0 | 0.00 | 0.05 | 0.05 | 46 | 1007.1 |
| 20260506010538 | 10 | 117 | 0.0 | 6.4 | 0.00 | 0.05 | 0.05 | 48 | 1007.0 |
| 20260506005537 | 10 | 0 | 1.6 | 12.9 | 0.00 | 0.05 | 0.05 | 46 | 1007.0 |
| 20260506004537 | 10 | 0 | 0.0 | 4.8 | 0.00 | 0.05 | 0.05 | 47 | 1007.1 |
| 20260506003535 | 10 | 200 | 0.0 | 4.8 | 0.00 | 0.05 | 0.05 | 47 | 1007.0 |
| 20260506003505 | 11 | 176 | 0.0 | 4.8 | 0.00 | 0.05 | 0.05 | 48 | 1006.9 |
| 20260506002747 | 11 | 176 | 0.0 | 4.8 | 0.00 | 0.05 | 0.05 | 48 | 1006.9 |
| 20260506002015 | 11 | 0 | 0.0 | 6.4 | 0.00 | 0.05 | 0.05 | 47 | 1006.7 |
| 20260506001746 | 11 | 0 | 0.0 | 6.4 | 0.00 | 0.05 | 0.05 | 47 | 1006.7 |
| 20260506000534 | 11 | 0 | 1.6 | 9.7 | 0.00 | 0.05 | 0.05 | 47 | 1006.6 |
| 20260505235536 | 11 | 0 | 0.0 | 4.8 | 0.00 | 0.05 | 0.05 | 48 | 1006.5 |
| 20260505235456 | 11 | 0 | 1.6 | 14.5 | 0.00 | 0.05 | 0.05 | 48 | 1006.4 |
| 20260505234536 | 11 | 0 | 1.6 | 14.5 | 0.00 | 0.05 | 0.05 | 48 | 1006.4 |
| 20260505234021 | 11 | 0 | 0.0 | 6.4 | 0.00 | 0.05 | 0.05 | 51 | 1006.3 |
| 20260505233748 | 11 | 0 | 0.0 | 6.4 | 0.00 | 0.05 | 0.05 | 51 | 1006.3 |
| 20260505233019 | 11 | 0 | 0.0 | 3.2 | 0.00 | 0.05 | 0.05 | 56 | 1006.2 |
| 20260505232538 | 11 | 0 | 0.0 | 3.2 | 0.00 | 0.05 | 0.05 | 56 | 1006.2 |
| 20260505231533 | 12 | 197 | 0.0 | 6.4 | 0.00 | 0.05 | 0.05 | 54 | 1006.2 |
| 20260505231440 | 12 | 300 | 0.0 | 3.2 | 0.00 | 0.05 | 0.05 | 55 | 1006.2 |
| 20260505230742 | 12 | 300 | 0.0 | 3.2 | 0.00 | 0.05 | 0.05 | 55 | 1006.2 |
| 20260505225530 | 12 | 0 | 0.0 | 4.8 | 0.00 | 0.05 | 0.05 | 54 | 1006.3 |
| 20260505225018 | 12 | 0 | 0.0 | 4.8 | 0.00 | 0.05 | 0.05 | 55 | 1006.4 |
| 20260505224742 | 12 | 0 | 0.0 | 4.8 | 0.00 | 0.05 | 0.05 | 55 | 1006.4 |
| 20260505223531 | 12 | 0 | 1.6 | 8.0 | 0.00 | 0.05 | 0.05 | 54 | 1006.3 |
| 20260505223013 | 12 | 0 | 0.0 | 8.0 | 0.00 | 0.05 | 0.05 | 56 | 1006.4 |
| 20260505222529 | 12 | 0 | 0.0 | 8.0 | 0.00 | 0.05 | 0.05 | 56 | 1006.4 |
| 20260505221529 | 12 | 265 | 1.6 | 9.7 | 0.00 | 0.05 | 0.05 | 53 | 1006.5 |
| 20260505220529 | 12 | 0 | 0.0 | 6.4 | 0.00 | 0.05 | 0.05 | 55 | 1006.5 |
| 20260505220008 | 12 | 241 | 1.6 | 6.4 | 0.00 | 0.05 | 0.05 | 57 | 1006.5 |
| 20260505215741 | 12 | 241 | 1.6 | 6.4 | 0.00 | 0.05 | 0.05 | 57 | 1006.5 |
| 20260505215014 | 12 | 188 | 1.6 | 9.7 | 0.00 | 0.05 | 0.05 | 57 | 1006.4 |
| 20260505214742 | 12 | 188 | 1.6 | 9.7 | 0.00 | 0.05 | 0.05 | 57 | 1006.4 |
| 20260505213530 | 12 | 339 | 1.6 | 6.4 | 0.00 | 0.05 | 0.05 | 59 | 1006.3 |
| 20260505212530 | 12 | 0 | 1.6 | 8.0 | 0.00 | 0.05 | 0.05 | 62 | 1006.4 |
| 20260505211530 | 12 | 237 | 1.6 | 8.0 | 0.00 | 0.05 | 0.05 | 63 | 1006.4 |
| 20260505211013 | 12 | 0 | 0.0 | 4.8 | 0.00 | 0.05 | 0.05 | 63 | 1006.5 |
| 20260505210528 | 12 | 0 | 0.0 | 4.8 | 0.00 | 0.05 | 0.05 | 63 | 1006.5 |
| 20260505205530 | 12 | 0 | 1.6 | 9.7 | 0.00 | 0.05 | 0.05 | 64 | 1006.4 |
| 20260505204530 | 12 | 238 | 1.6 | 6.4 | 0.00 | 0.05 | 0.05 | 61 | 1006.4 |
| 20260505203530 | 12 | 256 | 1.6 | 6.4 | 0.00 | 0.05 | 0.05 | 62 | 1006.4 |
| 20260505202529 | 12 | 0 | 1.6 | 11.3 | 0.00 | 0.05 | 0.05 | 60 | 1006.4 |
| 20260505201530 | 12 | 0 | 1.6 | 9.7 | 0.00 | 0.05 | 0.05 | 62 | 1006.4 |
| 20260505201459 | 12 | 298 | 0.0 | 4.8 | 0.00 | 0.05 | 0.05 | 65 | 1006.5 |
| 20260505200529 | 12 | 298 | 0.0 | 4.8 | 0.00 | 0.05 | 0.05 | 65 | 1006.5 |
| 20260505195530 | 12 | 0 | 1.6 | 6.4 | 0.00 | 0.05 | 0.05 | 62 | 1006.6 |
| 20260505195017 | 12 | 249 | 3.2 | 9.7 | 0.00 | 0.05 | 0.05 | 62 | 1006.6 |
| 20260505194529 | 12 | 249 | 3.2 | 9.7 | 0.00 | 0.05 | 0.05 | 62 | 1006.6 |
| 20260505194013 | 12 | 241 | 4.8 | 12.9 | 0.00 | 0.05 | 0.05 | 61 | 1006.6 |
| 20260505193529 | 12 | 241 | 4.8 | 12.9 | 0.00 | 0.05 | 0.05 | 61 | 1006.6 |
| 20260505192529 | 12 | 244 | 3.2 | 14.5 | 0.00 | 0.05 | 0.05 | 60 | 1006.7 |
| 20260505191530 | 12 | 0 | 3.2 | 14.5 | 0.00 | 0.05 | 0.05 | 58 | 1006.6 |
| 20260505190651 | 12 | 305 | 4.8 | 16.1 | 0.00 | 0.05 | 0.05 | 59 | 1006.6 |
| 20260505190529 | 12 | 232 | 3.2 | 12.9 | 0.00 | 0.05 | 0.05 | 59 | 1006.6 |
| 20260505190108 | 12 | 305 | 4.8 | 16.1 | 0.00 | 0.05 | 0.05 | 59 | 1006.6 |
| 20260505184530 | 12 | 290 | 4.8 | 12.9 | 0.00 | 0.05 | 0.05 | 59 | 1006.6 |
| 20260505184006 | 12 | 0 | 3.2 | 12.9 | 0.00 | 0.05 | 0.05 | 60 | 1006.4 |
| 20260505183740 | 12 | 0 | 3.2 | 12.9 | 0.00 | 0.05 | 0.05 | 60 | 1006.4 |
| 20260505183015 | 13 | 342 | 3.2 | 11.3 | 0.00 | 0.05 | 0.05 | 60 | 1006.2 |
| 20260505182529 | 13 | 342 | 3.2 | 11.3 | 0.00 | 0.05 | 0.05 | 60 | 1006.2 |
| 20260505182454 | 13 | 257 | 3.2 | 14.5 | 0.00 | 0.05 | 0.05 | 64 | 1006.0 |
| 20260505181529 | 13 | 257 | 3.2 | 14.5 | 0.00 | 0.05 | 0.05 | 64 | 1006.0 |
| 20260505180531 | 12 | 192 | 3.2 | 12.9 | 0.00 | 0.05 | 0.05 | 63 | 1006.0 |
| 20260505175529 | 12 | 0 | 3.2 | 9.7 | 0.00 | 0.05 | 0.05 | 68 | 1005.9 |
| 20260505174530 | 12 | 115 | 3.2 | 11.3 | 0.00 | 0.05 | 0.05 | 69 | 1005.7 |
| 20260505174012 | 12 | 277 | 1.6 | 8.0 | 0.00 | 0.05 | 0.05 | 68 | 1005.9 |
| 20260505173528 | 12 | 277 | 1.6 | 8.0 | 0.00 | 0.05 | 0.05 | 68 | 1005.9 |
| 20260505172530 | 12 | 0 | 3.2 | 6.4 | 0.00 | 0.05 | 0.05 | 70 | 1005.8 |
| 20260505171531 | 12 | 0 | 3.2 | 11.3 | 0.00 | 0.05 | 0.05 | 69 | 1005.8 |
| 20260505170531 | 12 | 227 | 1.6 | 9.7 | 0.00 | 0.05 | 0.05 | 73 | 1005.8 |
| 20260505165530 | 11 | 0 | 1.6 | 9.7 | 0.00 | 0.03 | 0.05 | 79 | 1006.0 |
| 20260505164529 | 10 | 0 | 0.0 | 3.2 | 0.03 | 0.03 | 0.05 | 79 | 1006.1 |
| 20260505163529 | 10 | 81 | 1.6 | 6.4 | 0.03 | 0.03 | 0.05 | 80 | 1006.0 |
| 20260505162530 | 10 | 146 | 1.6 | 9.7 | 0.03 | 0.03 | 0.05 | 80 | 1006.1 |
| 20260505162011 | 9 | 0 | 0.0 | 3.2 | 0.03 | 0.03 | 0.05 | 81 | 1006.1 |
| 20260505161739 | 9 | 0 | 0.0 | 3.2 | 0.03 | 0.03 | 0.05 | 81 | 1006.1 |
| 20260505160529 | 9 | 0 | 0.0 | 4.8 | 0.03 | 0.03 | 0.03 | 80 | 1006.1 |
| 20260505160224 | 10 | 318 | 1.6 | 4.8 | 0.03 | 0.00 | 0.03 | 76 | 1006.1 |
| 20260505160114 | 10 | 318 | 1.6 | 4.8 | 0.03 | 0.00 | 0.03 | 76 | 1006.1 |
| 20260505153014 | 10 | 320 | 4.8 | 11.3 | 0.00 | 0.00 | 0.00 | 72 | 1006.2 |
| 20260505152530 | 10 | 320 | 4.8 | 11.3 | 0.00 | 0.00 | 0.00 | 72 | 1006.2 |
| 20260505152013 | 11 | 295 | 3.2 | 8.0 | 0.00 | 0.00 | 0.00 | 69 | 1005.8 |
| 20260505151741 | 11 | 295 | 3.2 | 8.0 | 0.00 | 0.00 | 0.00 | 69 | 1005.8 |
| 20260505151005 | 10 | 0 | 0.0 | 3.2 | 0.00 | 0.00 | 0.00 | 69 | 1005.7 |
| 20260505150741 | 10 | 0 | 0.0 | 3.2 | 0.00 | 0.00 | 0.00 | 69 | 1005.7 |
| 20260505124529 | 11 | 55 | 4.8 | 14.5 | 0.00 | 0.00 | 0.00 | 71 | 1003.3 |
| 20260505124018 | 11 | 49 | 4.8 | 11.3 | 0.00 | 0.00 | 0.00 | 72 | 1003.2 |
| 20260505123742 | 11 | 49 | 4.8 | 11.3 | 0.00 | 0.00 | 0.00 | 72 | 1003.2 |
| 20260505123014 | 10 | 0 | 3.2 | 11.3 | 0.00 | 0.00 | 0.00 | 75 | 1003.1 |
| 20260505122530 | 10 | 0 | 3.2 | 11.3 | 0.00 | 0.00 | 0.00 | 75 | 1003.1 |
| 20260505122517 | 10 | 354 | 4.8 | 11.3 | 0.00 | 0.00 | 0.00 | 77 | 1003.2 |
| 20260505121531 | 10 | 354 | 4.8 | 11.3 | 0.00 | 0.00 | 0.00 | 77 | 1003.2 |
| 20260505121010 | 11 | 2 | 3.2 | 11.3 | 0.00 | 0.00 | 0.00 | 77 | 1003.1 |
| 20260505120744 | 11 | 2 | 3.2 | 11.3 | 0.00 | 0.00 | 0.00 | 77 | 1003.1 |
| 20260505115531 | 11 | 16 | 3.2 | 11.3 | 0.00 | 0.00 | 0.00 | 79 | 1002.8 |
| 20260505115010 | 13 | 92 | 6.4 | 17.7 | 0.00 | 0.00 | 0.00 | 80 | 1002.7 |
| 20260505114744 | 13 | 92 | 6.4 | 17.7 | 0.00 | 0.00 | 0.00 | 80 | 1002.7 |
| 20260505114007 | 13 | 221 | 1.6 | 8.0 | 0.00 | 0.00 | 0.00 | 79 | 1002.1 |
| 20260505113742 | 13 | 221 | 1.6 | 8.0 | 0.00 | 0.00 | 0.00 | 79 | 1002.1 |
| 20260505112942 | 12 | 276 | 1.6 | 4.8 | 0.00 | 0.03 | 0.00 | 83 | 1001.7 |